Location: Gorze? G�rny
(49.8500°N, 19.5000°E)
Time: 05:08:29
(UTC+00:00)

Cosmos 773 Rocket - Pass Details

Date: 13 May 2021
Orbit: 745 x 777 km, 74.1° (Epoch: 20 June)

Event Time Altitude Azimuth Distance (km) Brightness Sun altitude
Rises 18:52:32 0° 336° (NNW) 3,270 8.5 -5.4°
Reaches altitude 10° 18:54:56 10° 337° (NNW) 2,339 7.6 -5.7°
Maximum altitude 19:00:16 87° 65° (ENE) 784 4.1 -6.4°
Drops below altitude 10° 19:05:33 10° 157° (SSE) 2,313 5.9 -7.0°
Enters shadow 19:06:34 - 157° (SSE) 2,706 6.3 -7.2°
